changsha , China , ASIA

  • Sunday
    May 28

      Sunny

      73 °F

      South

       

  • Monday
    May 29

    Sunny  Sunny

    95 °F  73 °F

    South  South

        

  • Tuesday
    May 30

    Cloudy  Overcast

    93 °F  77 °F

    South  Southwest

        

  • Wednesday
    May 31

    Thundershower  Thundershower

    86 °F  72 °F

    Southwest  North

       3~4L 

  • Thursday
    June 1

    Moderate rain  Overcast

    77 °F  72 °F

    North  North

    3~4L   3~4L 

  • Friday
    June 2

    Cloudy  Cloudy

    86 °F  72 °F

    North  North

    3~4L    

  • Saturday
    June 3

    Sunny  Shower

    90 °F  72 °F

    North  North

        

Date   Weather Temperature Humidity Total_rain Visibility Wind
23:00 Sunny 78°F 79% 0mm 4km Southeast  0.7m/s
02:00 Sunny 74°F 87.9% 0mm 12km Southeast  1.0m/s
05:00 Sunny 74°F 89.9% 0mm 12km Southeast  0.9m/s
08:00 Sunny 82°F 77.4% 0mm 8km Southeast  1.1m/s
11:00 Sunny 92°F 56.4% 0mm 12km Southeast  1.8m/s
14:00 Sunny 94°F 49.6% 0mm 12km Southeast  3.6m/s
17:00 Sunny 95°F 48.2% 0mm 12km Southeast  2.0m/s
20:00 Sunny 88°F 42% 0mm 12km Southeast  1.8m/s
23:00 Sunny 79°F 82.9% 0mm 12km Southeast  1.5m/s
02:00 Sunny 74°F 90.6% 0mm 12km Southeast  1.4m/s
05:00 Sunny 74°F 90.7% 0mm 12km Southeast  1.4m/s
08:00 Sunny 81°F 74.7% 0mm 12km Southwest  1.0m/s
11:00 Cloudy 89°F 62.3% 0mm 12km Southwest  2.1m/s
14:00 Cloudy 93°F 54.5% 0mm 12km Southwest  2.4m/s
17:00 Cloudy 92°F 54.5% 0mm 12km Southwest  2.1m/s
20:00 Cloudy 85°F 47.2% 0mm 12km Southeast  2.9m/s
23:00 Overcast 79°F 67.8% 0mm 12km Southwest  2.3m/s
02:00 Overcast 79°F 72.6% 0mm 12km Southwest  1.9m/s
05:00 Overcast 77°F 80.2% 0mm 4km Southwest  2.2m/s
08:00 Overcast 78°F 78.3% 0mm 8km Southwest  2.5m/s
11:00 Cloudy 83°F 64.4% 0mm 12km Southwest  3.9m/s
14:00 Cloudy 86°F 55.7% 0mm 12km Southwest  3.4m/s
17:00 Thundershower 82°F 77% 2.7mm 12km Southeast  2.3m/s
20:00 Thundershower 81°F 58.5% 2.1mm 8km Southeast  2.4m/s
23:00 Thundershower 74°F 83.3% 0.3mm 8km Southwest  3.0m/s
02:00 Cloudy 74°F 83.7% 0mm 4km Southwest  2.3m/s
05:00 Thundershower 73°F 91.8% 9.8mm 12km Southwest  2.3m/s
08:00 Thundershower 72°F 97% 8.5mm 8km Southwest  1.4m/s
11:00 Light rain 74°F 91.2% 1.6mm 12km Southwest  2.7m/s
14:00 Light rain 76°F 81.1% 1.6mm 12km Southwest  3.0m/s
17:00 Light rain 77°F 75.1% 1.8mm 12km Southwest  2.5m/s
20:00 Moderate rain 74°F 68.5% 5.1mm 12km Northwest  4.7m/s
23:00 Overcast 80°F 98% 0mm 4km Northeast  2.4m/s
02:00 Overcast 78°F 97.1% 0mm 0.8km Northeast  2.5m/s
05:00 Overcast 75°F 96.2% 0mm 4km Northeast  2.5m/s
08:00 Overcast 72°F 86.4% 0mm 12km Northeast  3.2m/s
11:00 Cloudy 86°F 79.8% 0mm 8km Southeast  3.3m/s
14:00 Cloudy 80°F 81.1% 0mm 12km Northeast  3.7m/s
17:00 Cloudy 79°F 81.4% 0mm 8km Northeast  2.5m/s
20:00 Cloudy 79°F 81.7% 0mm 8km Northeast  2.3m/s
23:00 Cloudy 83°F 88.6% 0mm 4km Northwest  1.3m/s
02:00 Cloudy 80°F 81.8% 0mm 4km Northeast  2.5m/s
05:00 Cloudy 72°F 78.6% 0mm 12km Northwest  0.9m/s
08:00 Cloudy 78°F 75.3% 0mm 12km Northeast  1.3m/s
11:00 Sunny 78°F 59.8% 0mm 4km Northwest  4.0m/s
14:00 Sunny 89°F 46.5% 0mm 8km Northeast  2.1m/s
17:00 Sunny 87°F 55.7% 0mm 12km Northeast  2.1m/s
20:00 Sunny 81°F 45% 0mm 4km Northeast  2.0m/s
23:00 Cloudy 77°F 82.9% 0mm 8km Northwest  1.7m/s
02:00 Cloudy 72°F 79.4% 0mm 0.8km Northeast  1.2m/s
05:00 Cloudy 73°F 78.9% 0mm 12km Northwest  1.9m/s